{"data":{"norad_id":62080,"intl_designator":"2024-218C","name":"SUPERVIEW NEO-2 04","alt_names":[],"object_type":"PAYLOAD","status":"ACTIVE","operator":null,"country":"PRC","launch_date":"2024-11-24","launch_site_code":"JSC","launch_vehicle":null,"mission":null,"orbit_class":"UNKNOWN","rcs_meters":null,"size_class":null,"mass_kg":null,"dimensions":null,"purposes":[],"wikipedia_slug":null,"has_3d_model":false,"image_url":null,"decayed_at":null,"tle_current":{"epoch":"2026-05-24T09:55:51.355776Z","epoch_age_seconds":124990,"freshness":"FRESH","line1":"1 62080U 24218C   26144.41378884  .00000209  00000+0  12941-4 0  9994","line2":"2 62080  97.4394 152.0873 0001309 110.6080 249.5296 15.19720489 82833","mean_motion":15.19720489,"eccentricity":0.0001309,"inclination_deg":97.4394,"raan_deg":152.0873,"arg_perigee_deg":110.608,"mean_anomaly_deg":249.5296,"bstar":1.2941e-5,"rev_number":8283,"period_min":94.754266355094,"perigee_km":505.78344425796,"apogee_km":507.58589057049,"semimajor_km":6884.8216674142,"source":"CELESTRAK","updated_at":"2026-05-25T13:38:02.756638Z"}}}